Weather History for Pipestone, MN

Change the Weather History Date:

Tuesday, August 20, 2013

  Actual Average Record
Temperature  
Mean Temperature 74 °F -  
Max Temperature 84 °F 77 °F 87 °F (2003)
Min Temperature 64 °F 57 °F 48 °F (1996)
Cooling Degree Days 9    
Growing Degree Days 24 (Base 50)    
Moisture  
Dew Point 70 °F    
Average Humidity 84    
Maximum Humidity 100    
Minimum Humidity 66    
Precipitation  
Precipitation 0.00 in - - ()
Sea Level Pressure  
Sea Level Pressure 29.90 in    
Wind  
Wind Speed 5 mph (South)    
Max Wind Speed 9 mph    
Max Gust Speed -    
Visibility 6 miles    
Events Fog    
Averages and records for this station are not official NWS values.
T = Trace of Precipitation, MM = Missing Value Source: NWS Daily Summary

Daily Weather History Graph

Daily Weather History Graph

Search for Another Location

Airport:

Trip Planner

Search our weather history database for the weather conditions in past years. The results will help you decide how hot, cold, wet, or windy it might be!

Date:

Astronomy

Aug. 20, 2013 Rise Set
Actual Time 6:35 AM CDT 8:21 PM CDT
Civil Twilight 6:04 AM CDT 8:51 PM CDT
Nautical Twilight 5:26 AM CDT 9:28 PM CDT
Astronomical Twilight 4:46 AM CDT 10:09 PM CDT
Moon 7:50 PM CDT (8/20) 6:07 AM CDT (8/20)
Length of Visible Light 14h 47m
Length of Day
13h 45m
Full, 100% of the Moon is Illuminated
Aug 20
Full
Aug 20
Full
Aug 28
Last Quarter
Sep 5
New
Sep 12
First Quarter

Hourly Weather History & Observations

Time (CDT) Temp. Heat Index Dew Point Humidity Pressure Visibility Wind Dir Wind Speed Gust Speed Precip Events Conditions
12:13 AM 71.6 °F - 69.8 °F 94% 29.92 in 7.0 mi South 5.8 mph - N/A   Clear
12:33 AM 71.6 °F - 68.0 °F 88% 29.92 in 7.0 mi South 5.8 mph - N/A   Clear
12:53 AM 71.6 °F - 68.0 °F 88% 29.92 in 7.0 mi South 5.8 mph - N/A   Clear
1:13 AM 71.6 °F - 68.0 °F 88% 29.92 in 5.0 mi South 5.8 mph - N/A   Clear
1:33 AM 69.8 °F - 66.2 °F 88% 29.92 in 5.0 mi South 4.6 mph - N/A   Clear
1:53 AM 69.8 °F - 66.2 °F 88% 29.91 in 5.0 mi South 5.8 mph - N/A   Clear
2:13 AM 69.8 °F - 66.2 °F 88% 29.90 in 5.0 mi South 4.6 mph - N/A   Clear
2:33 AM 69.8 °F - 66.2 °F 88% 29.90 in 5.0 mi South 4.6 mph - N/A   Clear
2:53 AM 69.8 °F - 66.2 °F 88% 29.90 in 5.0 mi South 5.8 mph - N/A   Clear
3:13 AM 69.8 °F - 66.2 °F 88% 29.90 in 5.0 mi South 4.6 mph - N/A   Clear
3:33 AM 68.0 °F - 66.2 °F 94% 29.90 in 4.0 mi South 4.6 mph - N/A   Clear
3:53 AM 68.0 °F - 66.2 °F 94% 29.90 in 4.0 mi SSE 4.6 mph - N/A   Clear
4:13 AM 66.2 °F - 64.4 °F 94% 29.90 in 4.0 mi SSE 3.5 mph - N/A   Clear
4:33 AM 66.2 °F - 64.4 °F 94% 29.89 in 3.0 mi SSE 4.6 mph - N/A   Clear
4:53 AM 66.2 °F - 64.4 °F 94% 29.89 in 3.0 mi SSE 3.5 mph - N/A   Clear
5:13 AM 66.2 °F - 64.4 °F 94% 29.90 in 2.0 mi SSE 3.5 mph - N/A   Clear
5:33 AM 66.2 °F - 64.4 °F 94% 29.90 in 0.8 mi SSE 4.6 mph - N/A   Mostly Cloudy
5:53 AM 66.2 °F - 64.4 °F 94% 29.90 in 0.8 mi SE 3.5 mph - N/A   Overcast
6:13 AM 64.4 °F - 64.4 °F 100% 29.90 in 0.5 mi SE 3.5 mph - N/A Fog Fog
6:33 AM 64.4 °F - 64.4 °F 100% 29.90 in 0.2 mi SE 3.5 mph - N/A Fog Fog
6:53 AM 64.4 °F - 62.6 °F 94% 29.90 in 0.2 mi SE 3.5 mph - N/A Fog Fog
7:13 AM 64.4 °F - 64.4 °F 100% 29.91 in 0.2 mi Calm Calm - N/A Fog Fog
7:33 AM 64.4 °F - 64.4 °F 100% 29.91 in 0.2 mi Calm Calm - N/A Fog Fog
7:53 AM 66.2 °F - 64.4 °F 94% 29.92 in 0.2 mi SE 3.5 mph - N/A Fog Fog
8:13 AM 66.2 °F - 66.2 °F 100% 29.92 in 0.2 mi Calm Calm - N/A Fog Fog
8:33 AM 68.0 °F - 66.2 °F 94% 29.92 in 1.5 mi Calm Calm - N/A   Mostly Cloudy
8:53 AM 69.8 °F - 68.0 °F 94% 29.92 in 1.8 mi South 3.5 mph - N/A   Mostly Cloudy
9:13 AM 69.8 °F - 68.0 °F 94% 29.92 in 1.5 mi SSW 4.6 mph - N/A   Overcast
9:33 AM 69.8 °F - 68.0 °F 94% 29.92 in 1.5 mi South 5.8 mph - N/A   Overcast
9:53 AM 69.8 °F - 69.8 °F 100% 29.92 in 1.2 mi SSW 3.5 mph - N/A   Overcast
10:13 AM 71.6 °F - 71.6 °F 100% 29.92 in 2.5 mi Calm Calm - N/A   Overcast
10:33 AM 73.4 °F - 71.6 °F 94% 29.92 in 4.0 mi SSE 4.6 mph - N/A   Scattered Clouds
10:53 AM 75.2 °F - 71.6 °F 89% 29.92 in 5.0 mi SE 4.6 mph - N/A   Haze
11:13 AM 78.8 °F - 71.6 °F 78% 29.92 in 5.0 mi SSE 3.5 mph - N/A   Haze
11:33 AM 78.8 °F - 73.4 °F 83% 29.92 in 7.0 mi South 3.5 mph - N/A   Clear
11:53 AM 80.6 °F 85.4 °F 73.4 °F 79% 29.91 in 7.0 mi South 6.9 mph - N/A   Clear
12:13 PM 80.6 °F 85.4 °F 73.4 °F 79% 29.91 in 10.0 mi South 6.9 mph - N/A   Clear
12:33 PM 82.4 °F 88.2 °F 73.4 °F 74% 29.91 in 10.0 mi South 5.8 mph - N/A   Clear
12:53 PM 82.4 °F 88.2 °F 73.4 °F 74% 29.90 in 10.0 mi South 6.9 mph - N/A   Clear
1:13 PM 82.4 °F 88.2 °F 73.4 °F 74% 29.90 in 10.0 mi South 8.1 mph - N/A   Clear
1:33 PM 82.4 °F 88.2 °F 73.4 °F 74% 29.90 in 10.0 mi SSW 6.9 mph - N/A   Clear
1:53 PM 82.4 °F 88.2 °F 73.4 °F 74% 29.90 in 10.0 mi SSW 8.1 mph - N/A   Scattered Clouds
2:13 PM 82.4 °F 88.2 °F 73.4 °F 74% 29.91 in 10.0 mi SSW 6.9 mph - N/A   Scattered Clouds
2:33 PM 84.2 °F 89.6 °F 71.6 °F 66% 29.90 in 10.0 mi SSW 6.9 mph - N/A   Scattered Clouds
2:53 PM 84.2 °F 89.6 °F 71.6 °F 66% 29.90 in 10.0 mi SW 6.9 mph - N/A   Clear
3:13 PM 84.2 °F 89.6 °F 71.6 °F 66% 29.90 in 10.0 mi South 6.9 mph - N/A   Clear
3:33 PM 84.2 °F 89.6 °F 71.6 °F 66% 29.90 in 10.0 mi SSW 4.6 mph - N/A   Clear
3:53 PM 84.2 °F 89.6 °F 71.6 °F 66% 29.89 in 10.0 mi SSW 6.9 mph - N/A   Scattered Clouds
4:13 PM 84.2 °F 89.6 °F 71.6 °F 66% 29.88 in 10.0 mi SSW 8.1 mph - N/A   Scattered Clouds
4:33 PM 84.2 °F 89.6 °F 71.6 °F 66% 29.88 in 10.0 mi South 9.2 mph - N/A   Clear
4:53 PM 84.2 °F 89.6 °F 71.6 °F 66% 29.88 in 10.0 mi SSW 8.1 mph - N/A   Clear
5:13 PM 84.2 °F 89.6 °F 71.6 °F 66% 29.88 in 10.0 mi South 8.1 mph - N/A   Clear
5:33 PM 84.2 °F 89.6 °F 71.6 °F 66% 29.88 in 10.0 mi South 6.9 mph - N/A   Clear
5:53 PM 84.2 °F 89.6 °F 71.6 °F 66% 29.88 in 10.0 mi South 4.6 mph - N/A   Clear
6:13 PM 84.2 °F 89.6 °F 71.6 °F 66% 29.88 in 10.0 mi South 5.8 mph - N/A   Clear
6:33 PM 82.4 °F 87.2 °F 71.6 °F 70% 29.88 in 10.0 mi South 5.8 mph - N/A   Clear
6:53 PM 82.4 °F 87.2 °F 71.6 °F 70% 29.88 in 10.0 mi SSW 6.9 mph - N/A   Clear
7:13 PM 82.4 °F 87.2 °F 71.6 °F 70% 29.88 in 10.0 mi South 5.8 mph - N/A   Clear
7:33 PM 80.6 °F 84.6 °F 71.6 °F 74% 29.88 in 10.0 mi South 4.6 mph - N/A   Clear
7:53 PM 80.6 °F 84.6 °F 71.6 °F 74% 29.88 in 10.0 mi South 5.8 mph - N/A   Clear
8:13 PM 78.8 °F - 71.6 °F 78% 29.88 in 10.0 mi South 4.6 mph - N/A   Clear
8:33 PM 78.8 °F - 71.6 °F 78% 29.88 in 10.0 mi South 6.9 mph - N/A   Clear
8:53 PM 77.0 °F - 71.6 °F 83% 29.89 in 10.0 mi South 6.9 mph - N/A   Clear
9:12 PM 77.0 °F - 71.6 °F 83% 29.89 in 7.0 mi South 5.8 mph - N/A   Clear
9:33 PM 77.0 °F - 73.4 °F 89% 29.89 in 7.0 mi South 6.9 mph - N/A   Clear
9:53 PM 75.2 °F - 73.4 °F 94% 29.90 in 7.0 mi South 5.8 mph - N/A   Clear
10:12 PM 75.2 °F - 71.6 °F 89% 29.90 in 5.0 mi South 5.8 mph - N/A   Clear
10:33 PM 75.2 °F - 71.6 °F 89% 29.89 in 7.0 mi South 6.9 mph - N/A   Clear
10:53 PM 75.2 °F - 71.6 °F 89% 29.89 in 7.0 mi South 6.9 mph - N/A   Clear
11:13 PM 75.2 °F - 71.6 °F 89% 29.89 in 7.0 mi South 8.1 mph - N/A   Clear
11:33 PM 75.2 °F - 71.6 °F 89% 29.89 in 7.0 mi SSW 8.1 mph - N/A   Clear
11:53 PM 75.2 °F - 71.6 °F 89% 29.90 in 7.0 mi SSW 9.2 mph - N/A   Clear